Location: Unspecified
(40.7945°N, 111.1337°W)
Time: 04:31:44
(UTC-06:00)

Vanguard 1 - Pass Details

Date: 26 June 2019
Orbit: 653 x 3830 km, 34.3° (Epoch: 20 July)

Event Time Altitude Azimuth Distance (km) Brightness Sun altitude
Rises 02:53:30 0° 237° (WSW) 7,959 - -22.8°
Reaches altitude 10° 02:59:17 10° 234° (SW) 6,839 - -22.4°
Exits shadow 03:04:22 20° 230° (SW) 5,820 13.4 -22.0°
Maximum altitude 03:20:07 57° 164° (SSE) 3,210 12.3 -20.7°
Drops below altitude 10° 03:32:42 10° 90° (E) 4,361 13.7 -19.5°
Sets 03:35:29 0° 86° (E) 5,025 14.2 -19.3°
